STARLINK-35338, 66250

Orbit data source: Space-Track

STARLINK-35338, 66250 is a payload satellite owned by SpaceX/Seattle (US) in LEO that was launched on Wed, 29 Oct 2025 UTC via an FALCON 9 launch vehicle from the Air Force Eastern Test Range (AFETR). Payload-class satellites include a variety of spacecraft equipped with specific instruments for various scientific and technological missions. These include communications satellites like Starlink; space stations such as the ISS; scientific satellites like the Hubble; Earth observation satellites from companies like Planet Labs, Umbra, and HawkEye 360; GPS; miniature CubeSats for education and research; and military/defense satellites.

Loading next visibility...
Identifier
66250, 2025-245S
Orbit
LEO
Country
Flag of USUS
Related business
Manufacturer
SpaceX/Seattle
Mission
Operational Commercial Communications
Bus & Motor
STARLINK V2MO, Unknown motor
Mass
575 kg wet, ~530 kg dry
Launch date (UTC)
2025-10-29 (8 months ago)
Launch vehicle
FALCON 9
Launch site
Air Force Eastern Test Range (AFETR)
Object type
Payload
Rocket body
Debris
Shape & HBR
Box + 2 Pan, 17.7 m
Radar Cross Section
36.964 m², Large (>1 m²)

Expand to show TLE details & history
Last TLE update: 15 hours ago

TLE from 15 hours ago
0 STARLINK-35338
1 66250U 25245S   26171.22509118  .00012243  00000-0  40543-3 0  9993
2 66250  53.1576 167.0247 0001137  80.4711 279.6419 15.31717171 36863
Epoch: 2026-06-20T05:24Z
TLE epoch observation values (Epoch: 2026-06-20T05:24:07.877Z)
Latitude
-0.00003°
Longitude
177.54908°
Altitude
471.459 km
Speed
7.632 km/s
True Right ascension
11h 08m 05s
True Declination
0° 00' 00"
Sunlit
Object was in daylight at epoch
Visualization orbit readout
Latitude
Unknown
Longitude
Unknown
Altitude
Unknown
Speed
Unknown
Apparent Right ascension
Unknown
Apparent Declination
Unknown
Sunlit
N/A
Visualization observer readout
Local Sidereal Time
07:18:28
Azimuth
Unknown
Elevation
Unknown
Doppler factor
Unknown
Orbital elements
Apogee altitude
471.725 km
Perigee altitude
470.167 km
Semi-major axis
6,849.083 km
Eccentricity
0.00011
Inclination
53.1576°
RAAN
167.0247°
Arg. of periapsis
80.4711°
True anomaly
279.62905°
Mean anomaly
279.6419°
Eccentric anomaly
279.63548°
Mean motion
3.82908 °/min
Orbital period
94.02 mins
BSTAR
0.00040543
Loading maneuver chart data...
Computing Atmospheric mass density...
Loading historical data...
Loading historical data...
Loading historical data...
Loading historical data...
Loading historical data...
Loading historical data...
Loading historical data...

Documentation

Showing up to 5 results
|